OISF  Fasa Airport

Add Bookmark

Fasa, Iran

Status IATA
Operational FAZ
Latitude Longitude
28° 53' 30" N 53° 43' 23" E
28.891800 53.723301
Local (DST + 5) UTC (GMT + 4)
Oct 20, 2014 09:22 Oct 20, 2014 17:52
Sunrise-Sunset Local UTC
Begin Civil Twilight 05:34 02:04
Sunrise 05:58 02:28
Sunset 05:21 13:51
End Civil Twilight 05:45 14:15

Current Weather

METAR Observed VFR
OISF 201650Z 00000KT CAVOK 21/05 Q1017 Mon, Oct 20, 2014 @ 16:50 UTC
(1 Hour, 2 Minutes ago)
Visual Flight Rules
Wind Visibility Clouds Conditions
Calm 10 km or more
  • Clear skies
  • No significant weather
Temperatures Readings Precipitation
Current Temp 21°C (70°F)
Dewpoint 5°C (41°F)
Humidity 35%
Altimeter 30.03"Hg
Sea Level Pressure 1017mb
Field Elevation 4537.4'
None Recorded

Additional weather within a 185.2km radius of OISF

Map ICAO Location
OISS 131.3km W (303°)
OISL 149.8km S (154°)
OISR 176.7km S (197°)
OIBJ 179.3km S (229°)

24 Hour Weather History

Loading
-

24 Hour Weather Graphs

Loading
-

CheckWX.com is intended as a tool to help pilots better visualize weather data. It is not intended as a substitute for an official weather briefing obtained from a Flight Service Station. CheckWX.com does not meet the FAA requirements for an official pre-flight weather briefing. Therefore, it's important that pilots still call and obtain an official FSS pre-flight weather briefing.